CW4438 Weather Reports


Display with metric or nautical units.
time (UTC)temp
F
wind
direction
speed
MPH
gust
MPH
rain 1hr
in
rain 24hr
in
rain mn
in
humidity
%
barometer
mb
20260904123704 71 148 0.0 0.0 0.00 0.00 0.00 87 1015.9
20260904123203 71 148 0.0 0.0 0.00 0.00 0.00 87 1016.0
20260904122704 71 148 0.0 0.0 0.00 0.00 0.00 86 1015.9
20260904121702 71 148 0.0 0.0 0.00 0.00 0.00 86 1015.8
20260904121200 71 148 0.0 0.0 0.00 0.00 0.00 86 1015.8
20260904120658 72 148 0.0 0.0 0.00 0.00 0.00 85 1015.9
20260904120157 72 148 0.0 0.0 0.00 0.00 0.00 85 1015.8
20260904115654 72 148 0.0 0.0 0.00 0.00 0.00 85 1015.8
20260904115154 72 148 0.0 0.0 0.00 0.00 0.00 85 1015.8
20260904114651 72 148 0.0 1.0 0.00 0.00 0.00 85 1015.7
20260904113646 72 148 0.0 0.0 0.00 0.00 0.00 84 1015.7
20260904113140 73 148 0.0 0.0 0.00 0.00 0.00 83 1015.6
20260904112637 73 148 0.0 0.0 0.00 0.00 0.00 82 1015.6
20260904112134 73 148 0.0 0.0 0.00 0.00 0.00 82 1015.6
20260904111633 73 148 0.0 0.0 0.00 0.00 0.00 82 1015.5
20260904111132 73 148 0.0 1.0 0.00 0.00 0.00 82 1015.4
20260904110632 73 148 0.0 1.0 0.00 0.00 0.00 82 1015.5
20260904110132 73 148 0.0 1.0 0.00 0.00 0.00 82 1015.4
20260904105632 74 148 0.0 0.0 0.00 0.00 0.00 82 1015.4
20260904105132 74 148 0.0 0.0 0.00 0.00 0.00 81 1015.4
20260904104631 74 148 0.0 0.0 0.00 0.00 0.00 81 1015.4
20260904104131 74 148 0.0 0.0 0.00 0.00 0.00 81 1015.5
20260904103631 74 148 0.0 0.0 0.00 0.00 0.00 80 1015.4
20260904103130 74 148 0.0 0.0 0.00 0.00 0.00 80 1015.3
20260904102631 74 148 0.0 0.0 0.00 0.00 0.00 80 1015.3
20260904101631 75 148 0.0 0.0 0.00 0.00 0.00 79 1015.2
20260904101131 75 148 0.0 0.0 0.00 0.00 0.00 79 1015.1
20260904100630 75 148 0.0 0.0 0.00 0.00 0.00 78 1015.1
20260904095131 75 148 0.0 0.0 0.00 0.00 0.00 78 1015.0
20260904094132 76 148 0.0 1.0 0.00 0.00 0.00 77 1014.9
20260904093630 76 96 0.0 1.0 0.00 0.00 0.00 77 1014.9
20260904093131 76 97 0.0 1.0 0.00 0.00 0.00 77 1014.7
20260904091632 76 71 0.0 1.0 0.00 0.00 0.00 77 1014.7
20260904090615 76 81 0.0 2.0 0.00 0.00 0.00 76 1014.8
20260904090113 76 83 0.0 2.0 0.00 0.00 0.00 76 1014.8
20260904085105 76 90 0.0 2.0 0.00 0.00 0.00 76 1014.7
20260904084605 76 32 0.0 1.0 0.00 0.00 0.00 75 1014.7
20260904084103 77 31 0.0 1.0 0.00 0.00 0.00 75 1014.8
20260904083605 77 31 0.0 2.0 0.00 0.00 0.00 75 1014.7
20260904083103 77 31 0.0 2.0 0.00 0.00 0.00 74 1014.7
20260904081604 77 29 0.0 2.0 0.00 0.00 0.00 74 1014.6
20260904075602 77 24 0.0 1.0 0.00 0.00 0.00 74 1014.6
20260904075103 77 26 0.0 2.0 0.00 0.00 0.00 74 1014.6
20260904074600 77 24 0.0 2.0 0.00 0.00 0.00 74 1014.7
20260904074100 77 24 0.0 1.0 0.00 0.00 0.00 73 1014.7
20260904073600 77 23 0.0 1.0 0.00 0.00 0.00 73 1014.7
20260904073101 78 111 0.0 1.0 0.00 0.00 0.00 73 1014.7
20260904072559 78 111 0.0 1.0 0.00 0.00 0.00 73 1014.7
20260904072059 78 111 0.0 0.0 0.00 0.00 0.00 72 1014.7
20260904071558 78 112 0.0 1.0 0.00 0.00 0.00 72 1014.7
20260904071056 78 113 0.0 1.0 0.00 0.00 0.00 71 1014.7
20260904070555 78 112 0.0 1.0 0.00 0.00 0.00 71 1014.8
20260904070052 79 113 0.0 1.0 0.00 0.00 0.00 71 1014.8
20260904065551 79 111 0.0 2.0 0.00 0.00 0.00 70 1014.8
20260904065048 79 111 0.0 2.0 0.00 0.00 0.00 70 1014.8
20260904064548 79 132 0.0 1.0 0.00 0.00 0.00 69 1014.8
20260904064049 79 130 0.0 2.0 0.00 0.00 0.00 69 1014.8
20260904063547 80 138 0.0 2.0 0.00 0.00 0.00 69 1014.8
20260904063044 80 111 0.0 2.0 0.00 0.00 0.00 69 1014.7
20260904062041 80 107 0.0 3.0 0.00 0.00 0.00 68 1014.7
20260904061041 80 154 0.0 3.0 0.00 0.00 0.00 68 1014.7
20260904060540 80 5 0.0 3.0 0.00 0.00 0.00 68 1014.7
20260904060040 80 142 0.0 2.0 0.00 0.00 0.00 67 1014.7
20260904055536 80 162 0.0 2.0 0.00 0.00 0.00 67 1014.7
20260904055036 80 125 0.0 1.0 0.00 0.00 0.00 67 1014.7
20260904054537 80 130 0.0 1.0 0.00 0.00 0.00 67 1014.6
20260904054035 80 103 0.0 3.0 0.00 0.00 0.00 67 1014.6
20260904053533 80 116 1.0 3.0 0.00 0.00 0.00 67 1014.6
20260904052533 80 98 0.0 2.0 0.00 0.00 0.00 67 1014.6
20260904052033 80 67 0.0 2.0 0.00 0.00 0.00 66 1014.6
20260904051531 80 103 0.0 1.0 0.00 0.00 0.00 66 1014.6
20260904051031 80 98 0.0 4.0 0.00 0.00 0.00 66 1014.5
20260904050529 80 109 0.0 4.0 0.00 0.00 0.00 66 1014.5
20260904050017 81 101 0.0 2.0 0.00 0.00 0.00 65 1014.5
20260904045511 81 84 0.0 1.0 0.00 0.00 0.00 66 1014.5
20260904044005 81 143 0.0 1.0 0.00 0.00 0.00 64 1014.5
20260904042506 81 59 0.0 1.0 0.00 0.00 0.00 63 1014.5
20260904042005 82 144 0.0 1.0 0.00 0.00 0.00 64 1014.5
20260904041505 82 145 0.0 1.0 0.00 0.00 0.00 63 1014.5
20260904041005 82 147 0.0 2.0 0.00 0.00 0.00 63 1014.5
20260904040005 82 76 0.0 2.0 0.00 0.00 0.00 63 1014.4
20260904035005 83 25 0.0 2.0 0.00 0.00 0.00 62 1014.5
20260904034505 83 22 0.0 2.0 0.00 0.00 0.00 61 1014.5
20260904034003 83 107 0.0 2.0 0.00 0.00 0.00 61 1014.4
20260904033502 83 88 0.0 2.0 0.00 0.00 0.00 61 1014.4
20260904032955 83 91 1.0 3.0 0.00 0.00 0.00 60 1014.4
20260904032443 84 82 0.0 3.0 0.00 0.00 0.00 60 1014.4
20260904031941 84 88 0.0 2.0 0.00 0.00 0.00 59 1014.4
20260904031441 84 80 0.0 2.0 0.00 0.00 0.00 59 1014.4
20260904030441 85 99 0.0 2.0 0.00 0.00 0.00 58 1014.4
20260904025941 85 102 0.0 2.0 0.00 0.00 0.00 57 1014.4
20260904024943 86 95 0.0 2.0 0.00 0.00 0.00 56 1014.2
20260904023933 86 71 0.0 2.0 0.00 0.00 0.00 55 1014.1
20260904023433 86 98 0.0 3.0 0.00 0.00 0.00 55 1014.1
20260904022933 87 114 0.0 3.0 0.00 0.00 0.00 54 1014.0
20260904022433 87 142 0.0 3.0 0.00 0.00 0.00 54 1013.9
20260904020931 87 111 0.0 1.0 0.00 0.00 0.00 53 1013.6
20260904020431 88 28 0.0 2.0 0.00 0.00 0.00 53 1013.5
20260904015932 88 108 0.0 2.0 0.00 0.00 0.00 52 1013.4
20260904015430 88 68 0.0 2.0 0.00 0.00 0.00 52 1013.3
20260904014430 89 95 0.0 2.0 0.00 0.00 0.00 51 1013.2
20260904013931 89 121 0.0 3.0 0.00 0.00 0.00 51 1013.2
20260904013431 89 164 0.0 3.0 0.00 0.00 0.00 50 1013.1
20260904012433 90 98 0.0 2.0 0.00 0.00 0.00 49 1013.0
20260904011931 90 196 0.0 3.0 0.00 0.00 0.00 48 1013.0
20260904011430 90 127 1.0 5.0 0.00 0.00 0.00 48 1012.8
20260904010931 91 192 1.0 5.0 0.00 0.00 0.00 48 1012.8
20260904005431 91 131 1.0 5.0 0.00 0.00 0.00 47 1012.7
20260904004932 92 160 1.0 5.0 0.00 0.00 0.00 46 1012.7
20260904004429 92 189 1.0 5.0 0.00 0.00 0.00 46 1012.6
20260904003917 92 130 1.0 6.0 0.00 0.00 0.00 46 1012.6
20260904003405 92 196 1.0 6.0 0.00 0.00 0.00 46 1012.6
20260904002902 92 208 1.0 4.0 0.00 0.00 0.00 45 1012.6
20260904002403 93 199 1.0 7.0 0.00 0.00 0.00 45 1012.6
20260904001902 93 184 2.0 8.0 0.00 0.00 0.00 45 1012.6
20260904001403 93 213 2.0 8.0 0.00 0.00 0.00 45 1012.6
20260904000903 93 149 2.0 5.0 0.00 0.00 0.00 44 1012.6
20260904000403 93 151 2.0 9.0 0.00 0.00 0.00 43 1012.6
20260903235903 93 213 2.0 9.0 0.00 0.00 0.00 43 1012.5
20260903235403 94 140 2.0 8.0 0.00 0.00 0.00 43 1012.5
20260903234902 94 65 2.0 8.0 0.00 0.00 0.00 43 1012.5
20260903234403 94 117 2.0 5.0 0.00 0.00 0.00 43 1012.5
20260903233902 94 194 2.0 5.0 0.00 0.00 0.00 42 1012.5
20260903233404 94 198 2.0 7.0 0.00 0.00 0.00 42 1012.5
20260903232904 94 187 2.0 7.0 0.00 0.00 0.00 42 1012.5
20260903232403 94 148 2.0 5.0 0.00 0.00 0.00 43 1012.6
20260903231902 95 165 2.0 5.0 0.00 0.00 0.00 43 1012.6
20260903231357 95 95 2.0 6.0 0.00 0.00 0.00 42 1012.6
20260903230849 95 111 2.0 6.0 0.00 0.00 0.00 42 1012.6
20260903230348 95 240 2.0 6.0 0.00 0.00 0.00 42 1012.5
20260903225847 96 118 3.0 10.0 0.00 0.00 0.00 42 1012.5
20260903224845 96 69 2.0 7.0 0.00 0.00 0.00 42 1012.4
20260903224346 96 204 2.0 7.0 0.00 0.00 0.00 41 1012.5
20260903223844 97 134 3.0 7.0 0.00 0.00 0.00 40 1012.4
20260903223343 97 175 3.0 7.0 0.00 0.00 0.00 41 1012.3
20260903222843 97 27 3.0 6.0 0.00 0.00 0.00 39 1012.3
20260903221840 99 181 2.0 7.0 0.00 0.00 0.00 38 1012.3
20260903221333 100 161 2.0 7.0 0.00 0.00 0.00 37 1012.3
20260903220330 101 260 2.0 7.0 0.00 0.00 0.00 37 1012.4
20260903215831 101 243 2.0 6.0 0.00 0.00 0.00 37 1012.3
20260903214830 101 196 2.0 5.0 0.00 0.00 0.00 36 1012.4
20260903214330 101 155 3.0 7.0 0.00 0.00 0.00 36 1012.5
20260903213831 101 236 3.0 9.0 0.00 0.00 0.00 36 1012.5
20260903212827 101 234 3.0 7.0 0.00 0.00 0.00 36 1012.6
20260903212327 101 213 3.0 7.0 0.00 0.00 0.00 36 1012.7
20260903211326 101 219 3.0 11.0 0.00 0.00 0.00 36 1012.7
20260903210825 101 332 3.0 8.0 0.00 0.00 0.00 36 1012.7
20260903210324 100 230 3.0 7.0 0.00 0.00 0.00 37 1012.8
20260903205823 99 240 3.0 8.0 0.00 0.00 0.00 37 1012.8
20260903205312 99 72 3.0 8.0 0.00 0.00 0.00 37 1012.7
20260903204813 99 216 3.0 9.0 0.00 0.00 0.00 37 1012.8
20260903204313 100 213 3.0 9.0 0.00 0.00 0.00 37 1013.0
20260903203313 100 186 3.0 7.0 0.00 0.00 0.00 37 1013.1
20260903202811 99 254 3.0 7.0 0.00 0.00 0.00 38 1013.1
20260903202311 99 153 3.0 7.0 0.00 0.00 0.00 37 1013.2
20260903201811 100 124 4.0 10.0 0.00 0.00 0.00 36 1013.2
20260903201309 100 194 3.0 10.0 0.00 0.00 0.00 37 1013.2
20260903200807 100 136 3.0 8.0 0.00 0.00 0.00 37 1013.3
20260903200305 100 252 3.0 8.0 0.00 0.00 0.00 36 1013.3
20260903195805 100 198 3.0 8.0 0.00 0.00 0.00 37 1013.3
20260903195306 100 107 3.0 8.0 0.00 0.00 0.00 36 1013.5
20260903194304 100 202 3.0 8.0 0.00 0.00 0.00 37 1013.5
20260903193804 100 134 3.0 8.0 0.00 0.00 0.00 36 1013.6
20260903193304 100 103 4.0 9.0 0.00 0.00 0.00 36 1013.6
20260903192804 100 208 4.0 9.0 0.00 0.00 0.00 36 1013.8
20260903192306 100 288 3.0 8.0 0.00 0.00 0.00 37 1013.8
20260903191804 100 237 3.0 9.0 0.00 0.00 0.00 37 1013.8
20260903191304 100 157 3.0 9.0 0.00 0.00 0.00 37 1013.9
20260903190804 100 173 3.0 9.0 0.00 0.00 0.00 36 1013.9
20260903190304 100 189 3.0 9.0 0.00 0.00 0.00 39 1013.9
20260903185804 100 205 3.0 9.0 0.00 0.00 0.00 39 1013.9
20260903185306 99 138 3.0 8.0 0.00 0.00 0.00 39 1014.1
20260903184807 99 213 3.0 7.0 0.00 0.00 0.00 39 1014.2
20260903183804 99 227 3.0 8.0 0.00 0.00 0.00 39 1014.3
20260903183304 99 236 3.0 9.0 0.00 0.00 0.00 40 1014.4
20260903182804 98 190 4.0 9.0 0.00 0.00 0.00 40 1014.4
20260903182306 99 200 3.0 9.0 0.00 0.00 0.00 40 1014.5
20260903181804 98 233 3.0 10.0 0.00 0.00 0.00 41 1014.6
20260903181304 98 275 3.0 10.0 0.00 0.00 0.00 40 1014.6
20260903180807 98 180 3.0 10.0 0.00 0.00 0.00 40 1014.7
20260903180304 98 128 4.0 14.0 0.00 0.00 0.00 41 1014.8
20260903175306 98 217 3.0 9.0 0.00 0.00 0.00 41 1014.9
20260903174804 97 266 3.0 9.0 0.00 0.00 0.00 42 1014.9
20260903174303 97 189 3.0 9.0 0.00 0.00 0.00 43 1015.0
20260903173804 96 192 4.0 9.0 0.00 0.00 0.00 42 1015.0
20260903173304 96 198 4.0 9.0 0.00 0.00 0.00 42 1015.2
20260903172803 96 150 4.0 9.0 0.00 0.00 0.00 42 1015.4
20260903171804 96 180 4.0 10.0 0.00 0.00 0.00 43 1015.4
20260903170803 95 133 4.0 8.0 0.00 0.00 0.00 45 1015.5
20260903165804 95 205 3.0 8.0 0.00 0.00 0.00 45 1015.6
20260903164804 95 90 3.0 9.0 0.00 0.00 0.00 46 1015.8
20260903164304 94 244 3.0 10.0 0.00 0.00 0.00 46 1015.8
20260903163304 94 255 3.0 8.0 0.00 0.00 0.00 46 1016.0
20260903162804 94 273 3.0 7.0 0.00 0.00 0.00 46 1016.0
20260903161304 93 229 3.0 8.0 0.00 0.00 0.00 47 1016.0
20260903160804 93 144 2.0 7.0 0.00 0.00 0.00 47 1016.0
20260903155804 92 160 3.0 7.0 0.00 0.00 0.00 48 1016.1
20260903154804 92 215 3.0 6.0 0.00 0.00 0.00 50 1016.1
20260903154304 92 184 3.0 6.0 0.00 0.00 0.00 50 1016.1
20260903153804 92 195 3.0 9.0 0.00 0.00 0.00 50 1016.1
20260903153304 91 204 3.0 9.0 0.00 0.00 0.00 50 1016.1
20260903152804 91 281 2.0 7.0 0.00 0.00 0.00 52 1016.1
20260903152306 91 197 3.0 6.0 0.00 0.00 0.00 51 1016.1
20260903151803 90 162 3.0 8.0 0.00 0.00 0.00 52 1016.0
20260903151304 90 158 3.0 8.0 0.00 0.00 0.00 52 1016.1
20260903150803 90 269 3.0 8.0 0.00 0.00 0.00 53 1016.0
20260903150303 90 224 3.0 5.0 0.00 0.00 0.00 54 1016.1
20260903145802 89 74 2.0 5.0 0.00 0.00 0.00 54 1016.2
20260903145305 89 209 2.0 7.0 0.00 0.00 0.00 56 1016.3
20260903144302 87 138 2.0 7.0 0.00 0.00 0.00 57 1016.3
20260903143803 87 94 3.0 7.0 0.00 0.00 0.00 58 1016.5
20260903143303 87 200 3.0 7.0 0.00 0.00 0.00 59 1016.5
20260903142803 86 198 3.0 7.0 0.00 0.00 0.00 59 1016.5
20260903142306 86 216 3.0 7.0 0.00 0.00 0.00 60 1016.6
20260903141803 85 215 2.0 6.0 0.00 0.00 0.00 62 1016.6
20260903141303 85 215 2.0 5.0 0.00 0.00 0.00 63 1016.7
20260903140802 84 151 2.0 5.0 0.00 0.00 0.00 64 1016.8
20260903140302 83 203 2.0 5.0 0.00 0.00 0.00 66 1016.7
20260903135803 82 169 2.0 5.0 0.00 0.00 0.00 68 1016.8
20260903135306 81 197 2.0 5.0 0.00 0.00 0.00 70 1016.8
20260903130304 76 153 1.0 3.0 0.00 0.00 0.00 83 1016.7
20260903125803 75 136 0.0 3.0 0.00 0.00 0.00 85 1016.7
20260903125305 74 118 0.0 1.0 0.00 0.00 0.00 86 1016.7
20260903124802 73 21 0.0 1.0 0.00 0.00 0.00 86 1016.7
20260903124303 73 84 0.0 2.0 0.00 0.00 0.00 86 1016.7